TITAN 3C TRANSTAGE DEB, 43454

Orbit data source: Space-Track

TITAN 3C TRANSTAGE DEB, 43454 is space debris originally from a launch on Sun, 09 Feb 1969 UTC launched from the Air Force Eastern Test Range (AFETR). Debris objects in space refer to the collection of defunct objects orbiting the Earth. Examples of debris include non-operational satellites, rocket bodies, and fragments generated from explosions, collisions, or faulty payload assembly.

Loading next visibility...
TITAN 3C TRANSTAGE DEB details
Identifier
43454, 1969-013M
Orbit
Active
Last TLE update1 day ago
Origin
Flag of USUSAF SMC (US)
ManufacturerMartin Marietta
MissionSpacecraft
Bus & MotorUnknown
MassUnknown
Launch date (UTC)
1969-02-09 (56 years ago)
Launch vehicleUnknown
Launch site
Air Force Eastern Test Range (AFETR)
Object type
Payload
Rocket body
Debris
Shape & HBRUnknown
Radar Cross SectionRCS unknown

Expand to show TLE details & history

TLE from 1 day ago
0 TITAN 3C TRANSTAGE DEB
1 43454U 69013M   24325.28862417 -.00000063  00000-0  00000-0 0  9993
2 43454   0.9308 222.8863 0558326 240.5819 262.8350  1.02844657 24729
Epoch: 2024-11-20T06:55Z
Definitive object data (Epoch: 2024-11-20T06:55:37.128Z)
Latitude0.65111°
Longitude-163.68779°
Altitude35,485.857 km
Speed3.071 km/s
True Right ascension00h 00m 00s
True Declination0° 39' 02"
Sunlit
Object was in daylight at TLE epoch
Visualization TLE readout
Latitude-0.02289°
Longitude-118.26804°
Altitude33,757.545 km
Speed3.201 km/s
Apparent Right ascension02h 39m 18s
Apparent Declination-6° 18' 11"
Sunlit
Object is in daylight
Visualization observer readout
Local Sidereal Time06:11:32
Azimuth239.526° WSW
Elevation22.811°
Doppler factor1
Orbital elements
Apogee altitude37,396.296 km
Perigee altitude32,766.698 km
Semi-major axis41,459.634 km
Eccentricity0.0558326
Inclination0.9308°
RAAN222.8863°
Arg. of periapsis240.5819°
True anomaly256.5544°
Mean anomaly262.835°
Eccentric anomaly259.6877°
Mean motion0.2571 °/min
BSTARUnknown
Orbital period1400.22 mins
Loading maneuver chart data...

TITAN 3C TRANSTAGE DEB Visibility forecast

Observer location: undefined°, undefined

Span
Click to sort rows by Start time (UTC) header in descending order
Start Az.
Max El. time (UTC)
Max El. Az.
Max El.
End time (UTC)
End Az.
1440 mins2024-11-21 09:08:33.872Z239.51° WSW2024-11-21 20:22:33.872Z224.899° SW28.704°2024-11-22 09:08:33.872Z229.899° WSW
|